| time (UTC) | temp C | wind direction | speed KPH | gust KPH | rain 1hr cm | rain 24hr cm | rain mn cm | humidity % | barometer mb |
| 20260509222749 | 20 | 219 | 0.0 | 0.0 | 0.00 | 0.00 | 0.00 | 59 | 1026.4 |
| 20260509215748 | 20 | 246 | 3.2 | 3.2 | 0.00 | 0.00 | 0.00 | 57 | 1026.4 |
| 20260509212746 | 20 | 237 | 1.6 | 3.2 | 0.00 | 0.00 | 0.00 | 56 | 1026.5 |
| 20260509205746 | 20 | 222 | 3.2 | 3.2 | 0.00 | 0.00 | 0.00 | 59 | 1026.7 |
| 20260509202742 | 20 | 206 | 1.6 | 1.6 | 0.00 | 0.00 | 0.00 | 56 | 1027.2 |
| 20260509195740 | 20 | 264 | 3.2 | 3.2 | 0.00 | 0.00 | 0.00 | 58 | 1027.4 |
| 20260509192737 | 21 | 275 | 4.8 | 4.8 | 0.00 | 0.00 | 0.00 | 56 | 1028.0 |
| 20260509185738 | 20 | 242 | 3.2 | 3.2 | 0.00 | 0.00 | 0.00 | 61 | 1028.4 |
| 20260509182733 | 19 | 251 | 3.2 | 3.2 | 0.00 | 0.00 | 0.00 | 61 | 1028.5 |
| 20260509175732 | 18 | 259 | 3.2 | 3.2 | 0.00 | 0.00 | 0.00 | 65 | 1028.8 |
| 20260509172732 | 18 | 200 | 1.6 | 1.6 | 0.00 | 0.00 | 0.00 | 68 | 1028.9 |
| 20260509165729 | 17 | 220 | 1.6 | 1.6 | 0.00 | 0.00 | 0.00 | 72 | 1029.0 |
| 20260509162726 | 16 | 214 | 1.6 | 1.6 | 0.00 | 0.00 | 0.00 | 75 | 1029.3 |
| 20260509155724 | 15 | 203 | 0.0 | 0.0 | 0.00 | 0.00 | 0.00 | 78 | 1029.5 |
| 20260509152721 | 13 | 232 | 1.6 | 1.6 | 0.00 | 0.00 | 0.00 | 81 | 1029.6 |
| 20260509145716 | 11 | 203 | 0.0 | 0.0 | 0.00 | 0.00 | 0.00 | 91 | 1030.1 |
| 20260509142712 | 9 | 201 | 0.0 | 0.0 | 0.00 | 0.00 | 0.00 | 95 | 1030.4 |
| 20260509135710 | 8 | 199 | 0.0 | 0.0 | 0.00 | 0.00 | 0.00 | 99 | 1030.4 |
| 20260509132706 | 7 | 174 | 0.0 | 1.6 | 0.00 | 0.00 | 0.00 | 99 | 1030.6 |
| 20260509125703 | 8 | 199 | 0.0 | 1.6 | 0.00 | 0.00 | 0.00 | 99 | 1030.1 |
| 20260509122701 | 8 | 198 | 0.0 | 0.0 | 0.00 | 0.00 | 0.00 | 99 | 1030.4 |
| 20260509115658 | 8 | 203 | 0.0 | 0.0 | 0.00 | 0.00 | 0.00 | 99 | 1030.4 |
| 20260509112655 | 9 | 206 | 0.0 | 0.0 | 0.00 | 0.00 | 0.00 | 98 | 1030.5 |
| 20260509105655 | 10 | 210 | 0.0 | 0.0 | 0.00 | 0.00 | 0.00 | 97 | 1030.6 |
| 20260509102651 | 10 | 206 | 0.0 | 0.0 | 0.00 | 0.00 | 0.00 | 94 | 1030.9 |
| 20260509095649 | 11 | 205 | 0.0 | 0.0 | 0.00 | 0.00 | 0.00 | 93 | 1031.1 |
| 20260509092644 | 11 | 206 | 0.0 | 0.0 | 0.00 | 0.00 | 0.00 | 91 | 1031.0 |
| 20260509085640 | 11 | 204 | 0.0 | 0.0 | 0.00 | 0.00 | 0.00 | 92 | 1031.3 |
| 20260509082639 | 10 | 214 | 0.0 | 0.0 | 0.00 | 0.00 | 0.00 | 92 | 1031.3 |
| 20260509075636 | 10 | 194 | 1.6 | 1.6 | 0.00 | 0.00 | 0.00 | 94 | 1031.1 |
| 20260509072634 | 10 | 208 | 0.0 | 0.0 | 0.00 | 0.00 | 0.00 | 93 | 1031.2 |
| 20260509065631 | 10 | 198 | 0.0 | 0.0 | 0.00 | 0.00 | 0.00 | 93 | 1031.0 |
| 20260509062631 | 9 | 197 | 0.0 | 0.0 | 0.00 | 0.00 | 0.00 | 93 | 1030.5 |
| 20260509055629 | 11 | 199 | 3.2 | 3.2 | 0.00 | 0.00 | 0.00 | 88 | 1030.6 |
| 20260509052624 | 10 | 198 | 0.0 | 0.0 | 0.00 | 0.00 | 0.00 | 89 | 1030.4 |
| 20260509045619 | 11 | 200 | 0.0 | 0.0 | 0.00 | 0.00 | 0.00 | 84 | 1030.5 |
| 20260509042616 | 11 | 210 | 0.0 | 0.0 | 0.00 | 0.00 | 0.00 | 83 | 1030.2 |
| 20260509035615 | 12 | 204 | 0.0 | 0.0 | 0.00 | 0.00 | 0.00 | 81 | 1029.7 |
| 20260509032615 | 12 | 201 | 0.0 | 0.0 | 0.00 | 0.00 | 0.00 | 77 | 1029.6 |
| 20260509025610 | 13 | 207 | 0.0 | 0.0 | 0.00 | 0.00 | 0.00 | 74 | 1029.1 |
| 20260509022606 | 14 | 220 | 0.0 | 0.0 | 0.00 | 0.00 | 0.00 | 70 | 1029.1 |
| 20260509015603 | 16 | 214 | 0.0 | 1.6 | 0.00 | 0.00 | 0.00 | 66 | 1028.6 |
| 20260509012600 | 16 | 203 | 1.6 | 1.6 | 0.00 | 0.00 | 0.00 | 61 | 1028.8 |
| 20260509005600 | 16 | 177 | 1.6 | 3.2 | 0.00 | 0.00 | 0.00 | 60 | 1029.1 |
| 20260509002559 | 16 | 212 | 1.6 | 3.2 | 0.00 | 0.00 | 0.00 | 61 | 1029.3 |
| 20260508235559 | 16 | 213 | 1.6 | 3.2 | 0.00 | 0.00 | 0.00 | 60 | 1029.1 |
| 20260508232554 | 16 | 216 | 1.6 | 3.2 | 0.00 | 0.00 | 0.00 | 59 | 1029.1 |
| 20260508225554 | 16 | 207 | 0.0 | 1.6 | 0.00 | 0.00 | 0.00 | 59 | 1029.2 |